[[{"header":{"parameterUnit":"m.s-1","parameterCategory":1,"la1":30.2991,"la2":30.254,"lo1":-89.0895,"lo2":-89.0444,"dy":0.0017,"dx":0.0017,"nx":28,"ny":28,"refTime":"2024-03-28T03:00:00:Z","depth":0,"parameterNumber":2,"parameterNumberName":"U-component_of_WINDS"},"data":[0,0,0,0,0,0,0,0,0,0,0,0,0,0,0,0,0,0,0,0,0,0,0,0,0,0,0,0,0,0,0,0,0,0,0,0,0,0,0,0,0,0,0,0,0,0,0,0,0,0,0,0,0,0,0,0,0,0,-1.4349,-1.4349,0,-1.4392,-1.4392,-1.4393,-1.4383,-1.4382,-1.4381,-1.4381,-1.4427,-1.4429,-1.4431,0,0,0,0,0,0,0,0,0,0,0,0,0,-1.4262,-1.4264,-1.4349,-1.4349,-1.435,-1.4392,-1.4392,-1.4393,-1.4383,-1.4382,-1.4381,-1.438,-1.4426,-1.4429,-1.4431,0,0,0,0,0,0,0,0,0,0,0,0,0,-1.4302,-1.4264,-1.4349,-1.435,-1.4351,-1.4392,-1.4392,-1.4393,-1.4383,-1.4382,-1.4381,-1.438,-1.4425,-1.4428,-1.4431,-1.4474,0,0,-1.444,-1.4442,0,0,0,0,0,0,0,0,-1.4299,-1.4305,-1.4349,-1.435,-1.4351,-1.4381,-1.4379,-1.442,-1.4384,-1.4371,-1.438,-1.4379,-1.4413,-1.4417,-1.4427,-1.4477,-1.4479,-1.4441,-1.4443,-1.4444,-1.4445,0,0,0,0,0,0,0,-1.4297,-1.4303,-1.4366,-1.435,-1.4351,-1.435,-1.4354,-1.4386,-1.4398,-1.4372,-1.4371,-1.4376,-1.4413,-1.4425,-1.4428,-1.4479,-1.4441,-1.4443,-1.4445,-1.4446,-1.4567,-1.4569,0,0,0,0,0,0,-1.4293,-1.4301,-1.4365,-1.4367,-1.4321,-1.4352,-1.4357,-1.4372,-1.4398,-1.4401,-1.4377,-1.4376,-1.442,-1.4425,-1.443,-1.4483,-1.4444,-1.4447,-1.4448,-1.4566,-1.4568,-1.4569,0,0,0,0,0,0,-1.4291,-1.4299,-1.4363,-1.4334,-1.4342,-1.4355,-1.4372,-1.4374,-1.4386,-1.4402,-1.4404,-1.4387,-1.4419,-1.4426,-1.4464,-1.4484,-1.4448,-1.4451,-1.4564,-1.4566,-1.4568,-1.4589,0,0,0,0,0,0,-1.4289,-1.4298,-1.4314,-1.4334,-1.4343,-1.4395,-1.4374,-1.4376,-1.439,-1.4389,-1.4412,-1.4414,-1.4419,-1.4459,-1.4467,-1.4488,-1.4453,-1.4562,-1.4565,-1.4568,-1.4586,-1.4591,-1.4595,0,0,0,0,0,-1.4286,-1.4318,-1.4315,-1.4322,-1.4363,-1.4396,-1.4401,-1.4405,-1.4392,-1.4409,-1.4419,-1.4414,-1.4481,-1.4463,-1.4471,-1.4494,-1.4561,-1.4564,-1.4567,-1.4584,-1.459,-1.4595,0,0,0,0,0,0,-1.4301,-1.4321,-1.4317,-1.4357,-1.4375,-1.4394,-1.4415,-1.4411,-1.4434,-1.4431,-1.4436,-1.4441,-1.448,-1.4491,-1.447,-1.4538,-1.4519,-1.4524,-1.4529,-1.4535,-1.4539,-1.4536,-1.4456,0,0,0,0,0,-1.4308,-1.4332,-1.4349,-1.4383,-1.4392,-1.4402,-1.4416,-1.4418,-1.4437,-1.4444,-1.4458,-1.4477,-1.4503,-1.4519,-1.4544,-1.4588,-1.4593,-1.4607,-1.4612,-1.4616,-1.462,-1.4645,-1.4652,-1.458,-1.458,-1.4579,0,0,-1.4325,-1.4339,-1.4354,-1.4386,-1.44,-1.4426,-1.4408,-1.4436,-1.4455,-1.4449,-1.4485,-1.4496,-1.4518,-1.4559,-1.4578,-1.4569,-1.4641,-1.462,-1.4623,-1.4625,-1.4649,-1.4656,-1.4662,-1.4582,-1.4581,-1.4581,0,0,-1.4369,-1.4381,-1.4411,-1.4425,-1.4446,-1.4453,-1.446,-1.448,-1.4487,-1.4523,-1.4519,-1.4543,-1.4586,-1.4602,-1.4616,-1.4667,-1.4663,-1.4675,-1.4699,-1.4724,-1.4729,-1.4734,-1.4753,-1.476,-1.4679,-1.4679,-1.4679,0,-1.4387,-1.4425,-1.4427,-1.4455,-1.447,-1.4465,-1.4496,-1.451,-1.4538,-1.4549,-1.4538,-1.4594,-1.4608,-1.4653,-1.4666,-1.4677,-1.4686,-1.4672,-1.4728,-1.4733,-1.4738,-1.4756,-1.4763,-1.4681,-1.468,-1.468,-1.468,0,-1.4447,-1.4473,-1.4495,-1.4521,-1.4538,-1.4568,-1.4576,-1.4593,-1.4594,-1.4602,-1.464,-1.4657,-1.4685,-1.4696,-1.4696,-1.4742,-1.4736,-1.4727,-1.4708,-1.4746,-1.4763,-1.477,-1.4682,-1.4682,-1.4682,-1.4681,0,0,-1.4501,-1.4529,-1.4537,-1.4549,-1.4572,-1.4593,-1.4623,-1.4649,-1.4665,-1.4685,-1.4711,-1.4748,-1.474,-1.4756,-1.4758,-1.478,-1.482,-1.4768,-1.4769,-1.4778,-1.4872,-1.4878,-1.4886,-1.4817,-1.4818,-1.4819,-1.487,0,-1.4547,-1.4598,-1.4602,-1.4649,-1.4674,-1.4669,-1.4695,-1.4713,-1.4721,-1.4745,-1.4754,-1.4781,-1.4768,-1.4778,-1.4799,-1.481,-1.4839,-1.4807,-1.4842,-1.4843,-1.4837,-1.4895,-1.4902,-1.4949,-1.4877,-1.4878,-1.4878,0,-1.4608,-1.4629,-1.4678,-1.4698,-1.4709,-1.4732,-1.4757,-1.4779,-1.4799,-1.4804,-1.4822,-1.4822,-1.4854,-1.4834,-1.4879,-1.4857,-1.4872,-1.488,-1.4882,-1.4886,-1.4863,-1.4901,-1.4964,-1.4971,-1.4889,-1.4888,-1.4887,0,-1.4643,-1.4684,-1.4719,-1.4729,-1.4753,-1.477,-1.4781,-1.48,-1.4816,-1.4839,-1.485,-1.4876,-1.489,-1.4911,-1.4918,-1.4903,-1.4963,-1.4944,-1.4969,-1.4969,-1.4982,-1.4981,-1.5049,-1.4991,-1.4991,-1.499,-1.499,0,-1.4695,-1.4725,-1.4735,-1.4757,-1.4791,-1.4795,-1.483,-1.484,-1.4857,-1.4881,-1.4879,-1.4902,-1.491,-1.4935,-1.4941,-1.4978,-1.4984,-1.499,-1.4991,-1.499,-1.499,-1.5,-1.4997,-1.4992,-1.4992,-1.4992,-1.4991,0,-1.474,-1.4748,-1.4786,-1.4805,-1.4811,-1.4836,-1.4853,-1.4875,-1.4883,-1.4914,-1.4921,-1.4934,-1.4964,-1.4973,-1.5008,-1.5012,-1.5055,-1.5053,-1.5048,-1.5048,-1.5073,-1.5071,-1.5151,-1.5162,-1.5096,-1.5096,-1.5097,0,-1.4773,-1.4796,-1.4818,-1.4834,-1.4845,-1.4871,-1.4887,-1.4892,-1.491,-1.4935,-1.4954,-1.4982,-1.5005,-1.5052,-1.5066,-1.5093,-1.5093,-1.5119,-1.5097,-1.5095,-1.5094,-1.5093,-1.5095,-1.5123,-1.5124,-1.5124,-1.5125,0,-1.4831,-1.4833,-1.4856,-1.4881,-1.49,-1.492,-1.4939,-1.4953,-1.4961,-1.4981,-1.501,-1.5028,-1.5064,-1.5093,-1.5121,-1.5133,-1.5131,-1.5131,-1.5139,-1.5138,-1.5135,-1.5138,-1.506,-1.513,-1.5129,-1.5129,-1.5128,-1.5128,-1.4871,-1.4892,-1.4911,-1.4937,-1.4952,-1.497,-1.4991,-1.5001,-1.5026,-1.5055,-1.5057,-1.5089,-1.5109,-1.5146,-1.516,-1.5186,-1.5179,-1.519,-1.5192,-1.5195,-1.5197,-1.513,-1.5191,-1.5191,-1.5191,-1.5191,-1.5191,0,-1.493,-1.4941,-1.4965,-1.4992,-1.5012,-1.5007,-1.5028,-1.5046,-1.5074,-1.5093,-1.5116,-1.515,-1.5178,-1.5194,-1.5222,-1.524,-1.524,-1.5247,-1.5246,-1.525,-1.5202,-1.5193,-1.5247,-1.5247,-1.5247,-1.5247,-1.5247,-1.5247,-1.4962,-1.4997,-1.5002,-1.5045,-1.5057,-1.5087,-1.51,-1.5117,-1.5132,-1.517,-1.5193,-1.5203,-1.5221,-1.5251,-1.5277,-1.5281,-1.5291,-1.53,-1.5303,-1.5259,-1.5253,-1.5247,-1.5239,-1.5302,-1.5302,-1.5349,-1.535,-1.535]},{"header":{"parameterUnit":"m.s-1","parameterCategory":1,"la1":30.2991,"la2":30.254,"lo1":-89.0895,"lo2":-89.0444,"dy":0.0017,"dx":0.0017,"nx":28,"ny":28,"refTime":"2024-03-28T03:00:00:Z","depth":0,"parameterNumber":3,"parameterNumberName":"V-component_of_WINDS"},"data":[0,0,0,0,0,0,0,0,0,0,0,0,0,0,0,0,0,0,0,0,0,0,0,0,0,0,0,0,0,0,0,0,0,0,0,0,0,0,0,0,0,0,0,0,0,0,0,0,0,0,0,0,0,0,0,0,0,0,6.3304,6.3305,0,6.3377,6.3378,6.3379,6.3307,6.3304,6.3301,6.3299,6.3369,6.3373,6.3377,0,0,0,0,0,0,0,0,0,0,0,0,0,6.3095,6.31,6.3304,6.3305,6.3306,6.3377,6.3378,6.3379,6.3308,6.3304,6.3301,6.3298,6.3367,6.3372,6.3378,0,0,0,0,0,0,0,0,0,0,0,0,0,6.3179,6.3101,6.3304,6.3279,6.3277,6.3377,6.3378,6.3379,6.3308,6.3304,6.33,6.3296,6.3365,6.3372,6.3378,6.3505,0,0,6.3399,6.3402,0,0,0,0,0,0,0,0,6.3174,6.3187,6.3282,6.3281,6.3279,6.3329,6.333,6.3421,6.3309,6.3296,6.3299,6.3294,6.3358,6.3365,6.3388,6.3508,6.3511,6.34,6.3404,6.3407,6.3408,0,0,0,0,0,0,0,6.3169,6.3183,6.3333,6.3283,6.3282,6.3262,6.3269,6.3347,6.335,6.3297,6.3292,6.3302,6.3357,6.3382,6.3389,6.3512,6.3399,6.3405,6.341,6.3412,6.3735,6.374,0,0,0,0,0,0,6.3166,6.3179,6.333,6.3335,6.3216,6.3269,6.3277,6.3317,6.3349,6.335,6.3306,6.3299,6.3373,6.3382,6.3392,6.3539,6.3407,6.3413,6.3417,6.3731,6.3736,6.3741,0,0,0,0,0,0,6.3162,6.3181,6.3327,6.3256,6.3273,6.3277,6.3323,6.3321,6.3346,6.3356,6.3355,6.3331,6.337,6.3382,6.3477,6.354,6.3416,6.3422,6.3725,6.3732,6.3739,6.3836,0,0,0,0,0,0,6.3157,6.318,6.3229,6.3257,6.3277,6.3414,6.3327,6.3325,6.3358,6.335,6.3379,6.338,6.3367,6.3467,6.3483,6.3547,6.3427,6.372,6.3729,6.3737,6.3827,6.3846,6.3861,0,0,0,0,0,6.3149,6.3253,6.3232,6.3251,6.334,6.3418,6.3429,6.3413,6.3364,6.3412,6.3418,6.3379,6.3531,6.3477,6.3495,6.3562,6.3715,6.3726,6.3736,6.382,6.3842,6.3861,0,0,0,0,0,0,6.3231,6.3257,6.3233,6.335,6.3383,6.3405,6.3466,6.3438,6.3483,6.3473,6.345,6.3458,6.3557,6.3569,6.3509,6.3684,6.3615,6.3629,6.3673,6.3694,6.3711,6.3704,6.3433,0,0,0,0,0,6.3263,6.3327,6.3345,6.3445,6.3463,6.3462,6.3496,6.3481,6.3513,6.3526,6.3538,6.3569,6.3623,6.366,6.371,6.3829,6.3833,6.3884,6.3901,6.3915,6.3927,6.3987,6.4009,6.3775,6.3775,6.3774,0,0,6.3329,6.3351,6.3392,6.3462,6.3486,6.3549,6.3474,6.3545,6.3591,6.3536,6.3625,6.3636,6.3669,6.3775,6.3823,6.3788,6.3992,6.3928,6.3939,6.3943,6.4,6.4022,6.4042,6.3782,6.378,6.3779,0,0,6.3481,6.3506,6.3591,6.3616,6.3653,6.3651,6.3672,6.3699,6.3704,6.3795,6.3754,6.3807,6.3902,6.3926,6.3951,6.4111,6.4075,6.4128,6.4216,6.4275,6.4293,6.431,6.4364,6.4384,6.414,6.4141,6.4141,0,6.3558,6.3654,6.3638,6.3712,6.3743,6.3697,6.3781,6.3806,6.3857,6.3878,6.3839,6.3956,6.3975,6.4085,6.4124,6.4147,6.4167,6.4124,6.4293,6.4309,6.4323,6.4375,6.4396,6.4147,6.4146,6.4145,6.4145,0,6.3745,6.3812,6.3876,6.3928,6.3966,6.4045,6.4038,6.4079,6.4061,6.4062,6.4153,6.4174,6.4227,6.4253,6.4236,6.436,6.4337,6.4296,6.4226,6.4352,6.44,6.4419,6.4155,6.4153,6.4151,6.415,0,0,6.395,6.3991,6.4015,6.4036,6.4073,6.4123,6.4199,6.4252,6.4286,6.4322,6.4383,6.4464,6.4426,6.4454,6.4439,6.4491,6.4613,6.4443,6.4443,6.4471,6.4748,6.4777,6.48,6.4591,6.4595,6.4598,6.4744,0,6.4101,6.4234,6.4221,6.4346,6.4406,6.4363,6.4429,6.4457,6.4461,6.451,6.4513,6.457,6.4517,6.4533,6.4583,6.4588,6.4668,6.4577,6.4644,6.4647,6.4635,6.4825,6.4857,6.4994,6.4763,6.4766,6.4768,0,6.4295,6.4339,6.4471,6.4496,6.4521,6.458,6.4626,6.4676,6.4706,6.4704,6.4735,6.4711,6.4784,6.4714,6.4812,6.4751,6.4778,6.4784,6.4789,6.4792,6.4714,6.4831,6.5038,6.5057,6.4798,6.4796,6.4794,0,6.4428,6.452,6.461,6.463,6.4663,6.4705,6.472,6.4746,6.4778,6.4819,6.4838,6.4887,6.4912,6.4949,6.4937,6.4887,6.5037,6.4966,6.5035,6.5035,6.5067,6.5064,6.5278,6.5089,6.5088,6.5088,6.5088,0,6.4596,6.4678,6.467,6.4725,6.4814,6.4797,6.4885,6.4895,6.4918,6.4972,6.4938,6.4989,6.4971,6.5021,6.5012,6.5093,6.5106,6.5105,6.5101,6.5106,6.5106,6.5122,6.5111,6.5093,6.5092,6.5091,6.509,0,6.4759,6.4758,6.4852,6.4876,6.4883,6.4947,6.4966,6.5016,6.5017,6.5086,6.5101,6.5102,6.5158,6.515,6.5213,6.5207,6.5307,6.5293,6.5298,6.5293,6.5361,6.5354,6.559,6.5619,6.5414,6.5416,6.5417,0,6.4866,6.4927,6.4957,6.4992,6.501,6.5067,6.5099,6.5085,6.512,6.5158,6.5203,6.5256,6.5298,6.539,6.5394,6.5441,6.5426,6.5506,6.5433,6.5436,6.5424,6.5419,6.5424,6.5519,6.5521,6.5523,6.5525,0,6.5054,6.505,6.5099,6.5148,6.5188,6.5226,6.5259,6.5289,6.5277,6.5318,6.5376,6.5408,6.5472,6.5524,6.5568,6.5581,6.555,6.5548,6.5566,6.5571,6.557,6.5568,6.5334,6.5542,6.554,6.5539,6.5538,6.5538,6.519,6.5241,6.527,6.5326,6.535,6.5382,6.5429,6.5437,6.5485,6.5537,6.5525,6.5589,6.5615,6.5671,6.5689,6.5737,6.5708,6.5735,6.5741,6.5747,6.5754,6.5565,6.5746,6.5745,6.5745,6.5744,6.5744,0,6.5374,6.539,6.5441,6.549,6.5533,6.5502,6.5537,6.5574,6.5632,6.566,6.5702,6.5767,6.5817,6.5826,6.5873,6.591,6.5897,6.5923,6.5918,6.5921,6.5779,6.5757,6.5932,6.5932,6.5932,6.5932,6.5932,6.5932,6.5474,6.556,6.5559,6.5654,6.5669,6.5733,6.5756,6.5784,6.5805,6.588,6.5922,6.5928,6.5947,6.5995,6.6039,6.604,6.6058,6.6089,6.6084,6.595,6.5932,6.5914,6.5893,6.6094,6.6094,6.6222,6.6223,6.6224]}]]